#timestamp,LO_Frequency,Hit,StdDev 
1584432015.7,286047002.4,N
1584432035.5,286047004.1,N
1584432055.4,286047001.8,N
1584432075.2,286047003.5,N
1584432095.0,286046998.3,N
1584432095.9,286046998.3,N
1584432115.8,286046998.2,N
1584432135.6,286046997.7,N
1584432155.4,286046991.7,N
1584432175.3,286046992.6,N
1584432195.1,286046994.3,N
1584432215.9,286046994.2,N
1584432235.7,286046993.3,N
1584432255.5,286046987.5,N
1584432275.4,286046989.6,N
1584432295.2,286046990.7,N
1584432315.0,286046988.6,N
1584432315.9,286046988.6,N
1584432335.8,286046988.5,N
1584432355.6,286046987.8,N
1584432375.5,286046982.1,Y
1584432395.3,286046992.6,P
1584432415.1,286046987.0,P
1584432435.9,286046988.0,P
1584432455.7,286046984.8,Y
1584432475.5,286046990.9,P
1584432495.4,286046995.4,P
1584432515.2,286046998.1,N
1584432535.1,286046997.4,N
1584432536.0,286046997.4,N
1584432555.8,286046995.7,N
1584432575.6,286046998.3,N
1584432595.5,286047002.4,N
1584432615.3,286046996.2,N
1584432635.1,286046990.5,N
1584432655.9,286046990.0,N
1584432675.7,286046988.0,Y
1584432695.6,286046996.4,P
1584432715.4,286046994.7,P
1584432735.2,286046988.6,P
1584432755.1,286046990.1,Y
1584432756.0,286046990.1,P
1584432775.8,286046996.6,N
1584432795.7,286046998.3,N
1584432815.5,286047002.7,N
1584432835.3,286047001.8,N
1584432855.2,286047002.8,N
1584432875.0,286046990.4,N
1584432875.9,286046990.4,N
1584432895.8,286046993.2,N
1584432915.6,286046990.5,N
1584432935.4,286046987.1,N
1584432955.3,286046994.8,N
1584432975.1,286046994.5,N
1584432995.8,286046988.9,N
1584433015.7,286046989.3,N
1584433035.5,286046991.4,N
1584433055.4,286046985.0,Y
1584433075.2,286046991.6,P
1584433095.0,286046993.1,P
1584433095.9,286046993.1,P
1584433115.8,286046993.6,Y
1584433135.6,286047003.9,P
1584433155.5,286047001.2,N
1584433175.3,286047000.7,N
1584433195.1,286047003.5,N
1584433215.9,286046998.5,N
1584433235.7,286046999.0,N
1584433255.5,286046993.8,N
1584433275.4,286046997.4,N
1584433295.2,286046992.7,N
1584433315.1,286046986.5,Y
1584433316.0,286046986.5,P
1584433335.8,286046984.1,N
1584433355.6,286046983.8,N
1584433375.5,286046987.9,N
1584433395.3,286046986.9,N
1584433415.2,286046991.3,N
1584433435.9,286046986.7,N
1584433455.7,286046983.8,Y
1584433475.6,286046992.1,P
1584433495.4,286046996.1,N
1584433515.3,286046993.5,N
1584433535.1,286046989.6,Y
1584433555.8,286046998.8,P
1584433575.7,286047001.3,N
1584433595.5,286047001.7,N
1584433615.4,286047002.8,N
1584433635.2,286047003.6,N
1584433655.0,286047003.1,N
1584433655.9,286047003.1,N
1584433675.8,286046999.6,N
1584433695.6,286046997.6,N
1584433715.4,286046998.9,N
1584433735.3,286047006.0,N
1584433755.1,286047004.0,N
1584433775.9,286047001.0,N
1584433795.7,286047002.5,N
1584433815.5,286047004.8,N
1584433835.4,286047002.1,N
1584433855.2,286046999.7,N
1584433875.0,286047001.9,N
1584433876.0,286047001.9,N
1584433895.8,286047003.1,N
1584433915.6,286047000.7,N
1584433935.5,286047002.9,N
1584433955.3,286047006.2,N
1584433975.1,286047005.7,N
1584433995.9,286047000.5,N
1584434015.7,286047000.1,N
1584434035.5,286047006.8,N
1584434055.4,286047006.9,N
1584434075.2,286047010.7,Y
1584434095.1,286047001.8,P
1584434096.0,286047001.8,P
1584434115.8,286047005.0,P
1584434135.6,286047004.7,Y
1584434155.5,286047006.9,P
1584434175.3,286047007.4,P
1584434195.2,286047006.9,P
1584434215.9,286047011.9,Y
1584434235.7,286047002.5,P
1584434255.6,286046997.7,N
1584434275.4,286046994.4,N
1584434295.2,286046996.3,N
1584434315.1,286046995.7,N
1584434316.0,286046995.7,N
1584434335.8,286046994.4,N
1584434355.7,286046987.4,Y
1584434375.5,286046987.2,P
1584434395.3,286046985.6,N
1584434415.2,286046986.5,N
1584434435.0,286046991.2,N
1584434435.9,286046991.2,N
1584434455.8,286046982.4,Y
1584434475.6,286046991.5,P
1584434495.4,286046986.9,P
1584434515.3,286046985.5,P
1584434535.1,286046986.5,Y
1584434555.8,286046994.9,P
1584434575.7,286046992.4,N
1584434595.5,286046998.1,N
1584434615.4,286047008.0,N
1584434635.2,286047009.7,N
1584434655.0,286047014.9,N
1584434655.9,286047014.9,N
1584434675.8,286047017.7,N
1584434695.6,286047020.8,N
1584434715.5,286047022.4,N
1584434735.3,286047020.5,N
1584434755.1,286047022.9,N
1584434775.9,286047028.2,N
1584434795.7,286047030.0,N
1584434815.5,286047027.5,N
1584434835.4,286047029.8,N
1584434855.2,286047029.2,N
1584434875.1,286047030.8,N
1584434876.0,286047030.8,N
1584434895.8,286047028.7,N
1584434915.6,286047031.6,N
1584434935.5,286047027.9,N
1584434955.3,286047024.8,N
1584434975.2,286047025.1,N
1584434995.9,286047017.8,N
1584435015.7,286047016.6,N
1584435035.6,286047009.3,N
1584435055.4,286047005.0,N
1584435075.2,286047001.0,N
1584435095.1,286047000.0,N
1584435096.0,286047000.0,N
1584435115.8,286047004.2,N
1584435135.7,286047008.7,N
1584435155.5,286047007.9,N
1584435175.3,286047004.9,N
1584435195.2,286047008.2,N
1584435215.9,286047013.1,N
1584435235.7,286047011.6,N
1584435255.6,286047012.5,N
1584435275.4,286047016.9,N
1584435295.2,286047014.8,N
1584435315.1,286047011.4,N
1584435316.0,286047011.4,N
1584435335.8,286047008.4,N
1584435355.7,286047006.9,N
1584435375.5,286047006.5,N
1584435395.3,286047006.7,N
1584435415.2,286047007.5,N
1584435435.0,286047005.6,N
1584435435.9,286047005.6,N
1584435455.8,286047006.8,N
1584435475.6,286047002.1,N
1584435495.4,286046999.9,N
1584435515.3,286047000.9,N
1584435535.1,286047000.1,N
1584435555.8,286046998.4,N
1584435575.7,286046997.1,N
1584435595.5,286046999.8,N
